User: anonymous   Login
Location: Cedar Ridge
(38.0658°N, 120.2769°W)
Time: 14:39:04
(UTC+00:00)
Language:

Cosmos 1867 - Orbit

View from above orbital plane
View from above orbital plane
View from above satellite
View from above satellite

Ground track
Ground track

The orbit data is extracted from the following two-line orbital elements,

1 18187U 87060A   25349.88639662  .00000003  00000-0  38671-4 0  9999
2 18187  65.0088 181.3908 0013619 271.4367  88.5157 14.31486577  7944
Epoch (UTC): 15 December 2025 21:16:24
Eccentricity: 0.0013619
inclination: 65.0088°
perigee height: 777 km
apogee height: 796 km
right ascension of ascending node: 181.3908°
argument of perigee: 271.4367°
revolutions per day: 14.31486577
mean anomaly at epoch: 88.5157°
orbit number at epoch: 794

The dashed part of the orbit path shows where the satellite is in the earth's shadow,  

DLR